Regional Weather Roundup
Issued by NWS Newport/Morehead, NC

Current Version | Previous Version | Graphics & Text | Print | Product List | Glossary Off
Versions: 1 2 3 4 5 6 7 8 9 10 11 12 13 14 15 16 17 18 19 20 21 22 23 24 25 26 27 28 29 30 31 32 33 34 35 36 37 38 39 40 41 42 43 44 45 46 47 48 49 50

000
ASUS42 KMHX 270622
RWRMHX
WEATHER ROUNDUP FOR EASTERN NORTH CAROLINA
NATIONAL WEATHER SERVICE NEWPORT/MOREHEAD CITY NC
200 AM EDT WED AUG 27 2014

NOTE: "FAIR" INDICATES FEW OR NO CLOUDS BELOW 12,000 FEET
WITH NO SIGNIFICANT WEATHER AND/OR OBSTRUCTIONS TO VISIBILITY

NCZ015>017-031-032-045>047-102-103-270700-
NORTH COAST

CITY           SKY/WX    TMP DP  RH WIND       PRES   REMARKS
EDENTON        FAIR      65  64  97 N5        30.03F
ELIZABETH CITY FAIR      70  69  97 N5        30.03F
KITTY HAWK     CLOUDY    74  71  89 NE7       30.00F
MANTEO         MOCLDY    74  71  90 N12       30.01F

$$

NCZ045>047-081-094-103-104-270700-
CENTRAL COAST

CITY           SKY/WX    TMP DP  RH WIND       PRES   REMARKS
FRISCO         MOCLDY    74  73  97 NE12G20   29.98F
SWANQUARTER      N/A     70 N/A N/A N3        29.97S

$$

NCZ095-097-098-100-101-270700-
SOUTHERN COAST

CITY           SKY/WX    TMP DP  RH WIND       PRES   REMARKS
BEAUFORT       FAIR      73  70  90 N10       29.99F
CEDAR ISLAND     N/A     75 N/A N/A N8G25     30.03S
JACKSONVILLE   FAIR      69  65  86 N9        30.01F
NEWPORT        NOT AVBL
PINEY ISLAND   MOCLDY    77  71  82 N16       29.99F
WILMINGTON     FAIR      68  64  87 N8        30.01F


$$

NCZ011>013-027>030-043-044-078>080-089-090>093-098-270700-
COASTAL PLAIN

CITY           SKY/WX    TMP DP  RH WIND       PRES   REMARKS
AHOSKIE        FAIR      58  56  93 CALM      30.05F
CLINTON        FAIR      65  64  96 CALM      30.04F
ELIZABETHTOWN  FAIR      64  63  96 CALM      30.04F
GOLDSBORO      FAIR      65  65  98 E3        30.03F
GREENVILLE     FAIR      63  63 100 CALM      30.06F
HAVELOCK       FAIR      71  68  90 NE9       30.02F
KENANSVILLE    FAIR      64  63  94 CALM      30.04F
KINSTON        FAIR      63  62  95 CALM      30.04F
NEW BERN       FAIR      70  66  87 N9        30.03F
RICHLANDS      FAIR      66  63  88 N7        30.02F
ROANOKE RAPIDS NOT AVBL
ROCKY MOUNT    FAIR      59  57  93 CALM      30.06F
WASHINGTON     FAIR      65  64  96 N5        30.04F
WHITEVILLE     FAIR      67  63  85 CALM      30.02F

$$

AMZ130-135-150-152-154-156-158-170-250-252-270-ANZ085-086-088-633-658-670-270700-
MARINE OBSERVATIONS

STATION/POSITION TIME  TEMP    WIND        PRES    WAVE   SWELL
                       AIR SEA DIR/SP/G            HT/PER HT/PER
                 (UTC) (F)     (DEG/KT/KT) (MB)    (FT/S) (FT/S)
CHESAPEAKE LIGHT 0600   73      50/ 11/ 13 1017.8
BUOY 44014       0600   77 78   50/ 16/ 17 1016.2    6/ 9   5/ 9
DUCK             0600   74 76   30/ 13/ 15 1015.7
2E DUCK          0600                        N/A     5/13   2/13
OREGON INLET     0600   75 78   20/ 15/ 19 1015.6
BUOY 44095       0600      76                N/A     6/11   3/11
20E OREGON INLET NOT AVBL
HATTERAS CG      0600   76 79   30/ 16/ 22 1015.5
DIAMOND BUOY     0600   76     360/ 21/ 23 1013.9    8/11   7/11
CAPE LOOKOUT     0600   74      10/ 12/ 15 1014.9
BEAUFORT LAB     0600   73 79   10/ 11/ 13 1014.9
30 SE NEW RIVER  0600   76 80   30/ 19/ 23 1014.9    7/ 8   5/ 8
5 SE WRIGHTSVILL 0600   72 81   20/ 17/ 21   N/A
BUOY 41002       0458   80 81   20/ 25/ 29 1008.0   10/ 8   3/14
BUOY 41004       0600   80 83   20/ 19/ 23 1014.4    7/ 9   5/ 9

$$



USA.gov is the U.S. government's official web portal to all federal, state and local government web resources and services.